Weather History for KMFI - November, 2012

Change the Weather History Date:

Saturday, November 3, 2012

  Actual Average Record
Temperature  
Mean Temperature 34 °F -  
Max Temperature 39 °F 47 °F 73 °F (2008)
Min Temperature 28 °F 29 °F 2 °F (1951)
Degree Days  
Heating Degree Days 32    
Moisture  
Dew Point 25 °F    
Average Humidity 71    
Maximum Humidity 78    
Minimum Humidity 62    
Precipitation  
Precipitation 0.00 in - - ()
Sea Level Pressure  
Sea Level Pressure 30.25 in    
Wind  
Wind Speed 6 mph (East)    
Max Wind Speed 12 mph    
Max Gust Speed -    
Visibility 10 miles    
Events      
Averages and records for this station are not official NWS values.
T = Trace of Precipitation, MM = Missing Value Source: NWS Daily Summary

Daily Weather History Graph

Daily Weather History Graph

Search for Another Location

Airport or City:

Trip Planner

Search our weather history database for the weather conditions in past years. The results will help you decide how hot, cold, wet, or windy it might be!

Date:

Astronomy

Nov. 03, 2012 Rise Set
Actual Time 7:41 AM CDT 5:46 PM CDT
Civil Twilight 7:11 AM CDT 6:16 PM CDT
Nautical Twilight 6:36 AM CDT 6:51 PM CDT
Astronomical Twilight 6:02 AM CDT 7:25 PM CDT
Moon 9:23 PM CDT (11/3) 11:50 AM CDT (11/3)
Length of Visible Light 11h 05m
Length of Day
10h 04m
Waning Gibbous, 80% of the Moon is Illuminated
Nov 3
Waning Gibbous
Nov 6
Last Quarter
Nov 13
New
Nov 20
First Quarter
Nov 28
Full

Hourly Weather History & Observations

Time (CDT) Temp. Windchill Dew Point Humidity Pressure Visibility Wind Dir Wind Speed Gust Speed Precip Events Conditions
12:54 AM 30.9 °F 21.7 °F 23.0 °F 72% 30.22 in 10.0 mi East 11.5 mph - N/A   Overcast
1:54 AM 30.0 °F 22.4 °F 21.9 °F 72% 30.23 in 10.0 mi ESE 8.1 mph - N/A   Mostly Cloudy
2:54 AM 30.0 °F 23.2 °F 21.9 °F 72% 30.23 in 10.0 mi East 6.9 mph - N/A   Mostly Cloudy
3:54 AM 28.9 °F 21.9 °F 21.9 °F 75% 30.22 in 10.0 mi East 6.9 mph - N/A   Scattered Clouds
4:54 AM 28.9 °F 21.9 °F 21.9 °F 75% 30.23 in 10.0 mi East 6.9 mph - N/A   Scattered Clouds
5:54 AM 28.9 °F 19.8 °F 21.9 °F 75% 30.24 in 10.0 mi ENE 10.4 mph - N/A   Overcast
6:54 AM 28.9 °F 19.8 °F 21.9 °F 75% 30.24 in 10.0 mi East 10.4 mph - N/A   Overcast
7:54 AM 28.9 °F 22.8 °F 21.9 °F 75% 30.26 in 10.0 mi East 5.8 mph - N/A   Overcast
8:54 AM 28.9 °F 21.1 °F 23.0 °F 78% 30.27 in 10.0 mi East 8.1 mph - N/A   Overcast
9:54 AM 30.9 °F 24.3 °F 23.0 °F 72% 30.28 in 10.0 mi ESE 6.9 mph - N/A   Mostly Cloudy
10:54 AM 33.1 °F 30.0 °F 24.1 °F 70% 30.29 in 10.0 mi SE 3.5 mph - N/A   Overcast
11:54 AM 35.1 °F 30.1 °F 25.0 °F 67% 30.29 in 10.0 mi SSE 5.8 mph - N/A   Overcast
12:54 PM 35.1 °F - 26.1 °F 70% 30.27 in 10.0 mi Calm Calm - N/A   Overcast
1:54 PM 37.0 °F - 26.1 °F 65% 30.25 in 10.0 mi Calm Calm - N/A   Overcast
2:54 PM 37.9 °F - 27.0 °F 65% 30.24 in 10.0 mi Calm Calm - N/A   Scattered Clouds
3:54 PM 37.9 °F - 27.0 °F 65% 30.25 in 10.0 mi Calm Calm - N/A   Overcast
4:54 PM 39.0 °F - 27.0 °F 62% 30.24 in 10.0 mi Calm Calm - N/A   Overcast
5:54 PM 37.0 °F - 27.0 °F 67% 30.23 in 10.0 mi Calm Calm - N/A   Overcast
6:54 PM 36.0 °F - 27.0 °F 70% 30.25 in 10.0 mi Calm Calm - N/A   Overcast
7:54 PM 36.0 °F - 28.0 °F 73% 30.25 in 10.0 mi Calm Calm - N/A   Overcast
8:54 PM 36.0 °F - 27.0 °F 70% 30.25 in 10.0 mi Calm Calm - N/A   Overcast
9:54 PM 35.1 °F - 27.0 °F 72% 30.26 in 10.0 mi Calm Calm - N/A   Overcast
10:54 PM 33.1 °F 27.7 °F 27.0 °F 78% 30.25 in 10.0 mi East 5.8 mph - N/A   Mostly Cloudy
11:54 PM 33.1 °F - 27.0 °F 78% 30.26 in 10.0 mi Calm Calm - N/A   Partly Cloudy